Temp
5 5 5 5 6 6 6 6 6 6 6 6 5 5 6 6 6 6 6 6 6 6 5 5 6 6 6 6 6 6 6 6 6
5 5 5 5 5 6 6 6 6 6 6 6 5 5 5 6 6 6 6 6 6 5 5 5 5 5 5 6 6 6 6 6 6
5 5 5 5 6 5 6 6 6 6 6 6 5 5 5 5 5 5 6 6 6 5 5 5 5 5 5 5 5 5 6 6 6
5 5 5 6 6 6 6 6 6 6 6 6 5 5 5 5 5 5 5 5 5 6 5 5 5 5 5 5 5 6 6 6 6
5 5 5 6 6 6 6 6 6 6 6 6 5 5 5 5 5 5 5 5 5 5 5 5 5 5 5 5 5 5 5 5 5
5 5 6 6 6 6 6 6 6 6 6 6 5 5 6 5 6 6 5 5 5 5 5 5 5 5 5 5 5 5 5 5 5
5 6 6 6 6 6 6 6 6 6 6 6 6 5 6 6 6 5 5 5 5 5 5 5 5 5 5 5 5 5 5 5 4
6 6 6 6 6 6 6 6 6 6 6 6 6 6 6 6 6 5 5 5 5 5 5 5 5 5 5 5 4 5 4 4 4
5 6 6 6 6 6 6 6 6 6 6 6 6 6 6 6 6 6 5 5 5 5 5 5 5 5 5 5 5 4 4 4 4
5 5 6 5 6 6 7 6 6 6 6 6 6 6 6 6 6 6 6 5 5 5 5 5 5 4 4 5 5 4 4 4 4
5 5 5 5 5 6 6 6 6 6 6 6 6 6 6 6 6 6 6 6 5 5 4 4 5 4 4 4 4 4 4 4 4
5 5 5 5 5 5 6 6 6 6 5 6 6 6 6 6 6 6 6 6 5 5 4 4 4 4 4 4 4 4 4 4 4
5 5 5 5 5 5 5 6 6 6 6 6 6 6 6 6 6 6 6 5 6 5 5 5 5 5 4 4 4 3 4 4 4
5 5 5 5 5 5 5 5 5 5 5 5 5 5 5 5 6 6 6 5 5 5 5 5 5 5 4 3 3 3 3 3 4
4 4 5 4 5 5 5 5 5 5 5 5 5 5 5 5 5 5 6 6 5 5 5 5 5 5 4 3 3 3 3 3 3
4 4 4 4 4 4 4 4 5 5 5 4 5 5 5 5 5 5 5 5 5 5 5 5 5 5 4 4 3 3 3 4 3
4 4 4 4 4 4 4 4 4 4 4 4 4 4 5 4 4 5 5 5 5 5 5 5 5 5 4 4 4 3 4 3 4
4 4 4 4 3 3 4 3 3 4 4 4 4 4 4 4 4 4 4 5 5 4 4 4 4 4 4 4 4 4 4 4 3
5 4 4 3 3 3 3 3 3 3 3 3 3 3 4 4 4 4 4 4 4 4 4 4 4 4 4 4 4 4 4 4 3
1 2 3 4 3 3 2 3 2 2 2 3 3 2 3 3 3 4 3 4 4 4 4 3 3 3 3 4 3 3 3 3 3
Height
3167 3167 3169 3171 3172 3173 3174 3175 3175 3175 3176 3177 3178 3179 3180 3180 3181 3181 3181 3183 3184 3185 3186 3187 3188 3190 3190 3191 3192 3193 3194 3194 3194
3166 3167 3168 3169 3171 3172 3173 3174 3174 3175 3175 3176 3178 3179 3180 3181 3181 3182 3183 3183 3185 3186 3187 3188 3189 3190 3191 3192 3193 3193 3194 3194 3194
3167 3167 3166 3167 3169 3171 3172 3172 3173 3174 3175 3176 3177 3178 3179 3180 3181 3182 3183 3184 3185 3186 3187 3188 3189 3190 3191 3192 3193 3193 3194 3195 3195
3163 3164 3164 3165 3167 3168 3170 3170 3171 3173 3174 3175 3175 3176 3177 3179 3180 3182 3182 3183 3184 3186 3187 3188 3189 3190 3191 3192 3192 3193 3194 3194 3195
3162 3162 3163 3163 3164 3165 3167 3168 3169 3170 3172 3173 3174 3175 3176 3177 3179 3181 3183 3184 3185 3186 3187 3188 3189 3190 3190 3191 3192 3192 3193 3194 3194
3161 3161 3161 3162 3162 3162 3164 3166 3167 3168 3170 3171 3172 3172 3173 3175 3177 3179 3181 3183 3184 3185 3186 3187 3188 3189 3190 3190 3192 3192 3193 3193 3194
3158 3159 3160 3161 3162 3163 3163 3164 3165 3166 3168 3169 3171 3171 3171 3174 3177 3178 3180 3181 3183 3185 3185 3186 3188 3189 3189 3189 3190 3191 3192 3192 3193
3155 3156 3156 3157 3158 3159 3161 3162 3162 3164 3166 3168 3169 3170 3170 3173 3175 3177 3179 3180 3181 3183 3184 3185 3186 3187 3187 3188 3189 3190 3190 3191 3192
3152 3153 3155 3156 3156 3157 3158 3160 3161 3162 3164 3165 3166 3169 3168 3171 3174 3175 3176 3178 3180 3181 3182 3183 3184 3185 3185 3186 3187 3188 3189 3190 3190
3150 3151 3152 3153 3154 3155 3157 3158 3159 3160 3162 3163 3165 3166 3167 3169 3171 3173 3174 3176 3177 3179 3180 3181 3182 3183 3184 3185 3186 3187 3187 3187 3188
3148 3149 3150 3151 3151 3152 3153 3156 3157 3159 3160 3161 3163 3164 3165 3165 3168 3170 3172 3173 3175 3176 3178 3179 3180 3180 3181 3182 3183 3184 3185 3185 3186
3146 3147 3148 3148 3149 3150 3151 3152 3154 3156 3156 3158 3159 3160 3162 3163 3164 3166 3168 3170 3171 3173 3175 3176 3177 3178 3178 3179 3181 3181 3182 3183 3183
3142 3144 3145 3146 3146 3147 3148 3150 3150 3152 3153 3154 3155 3157 3158 3160 3161 3162 3164 3166 3167 3169 3171 3173 3174 3175 3176 3177 3178 3178 3178 3179 3180
3139 3140 3141 3142 3143 3144 3144 3146 3147 3148 3150 3151 3152 3153 3154 3155 3157 3158 3160 3162 3163 3165 3167 3168 3170 3172 3174 3175 3174 3174 3175 3176 3177
3134 3135 3137 3138 3138 3139 3140 3140 3142 3144 3146 3147 3148 3149 3150 3151 3152 3154 3155 3157 3159 3160 3162 3163 3165 3168 3170 3171 3171 3171 3173 3173 3174
3128 3130 3131 3132 3133 3135 3135 3136 3137 3139 3142 3142 3143 3144 3145 3146 3148 3149 3150 3152 3153 3155 3156 3158 3160 3162 3164 3166 3166 3167 3169 3171 3171
3123 3124 3125 3126 3127 3128 3130 3131 3132 3134 3136 3136 3137 3137 3141 3141 3142 3143 3145 3146 3148 3150 3151 3152 3154 3156 3158 3160 3161 3162 3163 3166 3168
3116 3117 3118 3119 3121 3122 3124 3125 3126 3128 3129 3130 3131 3132 3133 3135 3137 3138 3139 3140 3142 3143 3145 3147 3148 3150 3152 3154 3156 3157 3157 3161 3163
3108 3109 3111 3113 3114 3115 3116 3118 3119 3121 3123 3124 3125 3125 3127 3127 3130 3132 3132 3134 3136 3137 3139 3140 3142 3144 3146 3148 3150 3151 3152 3155 3157
3103 3104 3106 3106 3105 3107 3108 3109 3111 3113 3115 3116 3118 3118 3120 3120 3122 3124 3126 3127 3128 3130 3132 3133 3135 3138 3139 3141 3143 3145 3147 3149 3151
Wind_Speed
4 5 4 4 3 4 4 5 5 4 1 4 5 3 3 4 6 7 10 9 9 10 11 11 10 8 8 9 7 6 4 3 3
8 9 8 8 8 8 8 9 8 5 3 5 7 6 5 4 5 6 7 9 9 9 9 9 8 8 7 6 4 3 1 1 2
12 13 13 13 14 13 11 11 10 7 5 6 7 8 7 5 5 7 7 8 8 8 8 8 7 6 5 5 4 3 1 1 1
16 16 16 16 18 16 12 11 10 8 7 7 8 9 9 7 10 8 9 8 8 8 8 8 7 6 5 4 3 2 1 1 1
17 16 16 18 18 16 13 11 10 10 10 9 10 10 9 10 9 8 9 9 8 8 8 8 7 6 5 4 3 2 2 1 1
15 17 17 17 16 14 13 11 10 11 10 11 11 11 13 12 10 11 11 10 9 9 9 8 7 7 5 6 5 5 4 4 3
16 16 16 16 15 14 11 11 11 11 12 12 12 12 14 13 10 10 11 11 12 11 11 11 10 9 9 8 7 7 6 5 5
16 14 14 13 13 13 12 13 13 13 12 13 13 14 16 13 12 14 13 13 12 12 12 12 12 11 11 10 8 8 7 7 6
16 15 14 13 14 15 15 14 13 14 13 14 14 15 17 15 13 15 14 14 14 13 11 12 12 11 11 11 11 10 9 9 8
14 15 14 14 14 16 14 13 15 15 15 16 17 17 19 17 16 15 15 16 16 14 10 14 14 13 12 12 12 11 12 11 10
14 15 14 15 15 17 15 14 15 15 17 17 17 19 19 19 17 17 18 18 18 20 18 13 16 13 13 13 13 14 14 13 13
15 15 15 16 16 17 17 18 17 16 18 18 18 19 19 20 20 19 19 19 20 20 22 20 15 17 15 14 14 15 16 16 15
15 15 16 16 17 17 18 19 19 19 19 19 20 20 21 21 22 21 20 20 21 22 22 23 20 21 17 16 16 17 18 17 16
17 16 17 17 19 18 20 19 20 21 20 21 22 22 22 22 23 23 22 22 23 23 24 24 24 22 23 18 18 17 16 17 17
19 19 19 19 21 21 22 23 22 22 21 23 24 24 25 25 25 24 24 23 25 25 25 26 26 26 25 22 23 21 21 18 15
23 23 23 23 24 23 24 25 25 25 22 24 26 26 27 27 26 26 26 26 25 25 27 27 27 28 28 28 28 26 27 20 16
28 28 28 27 27 27 27 27 27 27 26 27 28 29 28 28 27 28 27 27 26 27 28 29 29 29 29 30 32 34 31 25 22
34 34 33 32 31 31 30 30 30 30 30 30 31 31 31 31 30 30 30 30 29 29 29 30 31 31 31 31 32 34 35 31 28
41 40 38 37 36 34 35 33 33 33 33 33 33 34 33 34 34 32 32 31 30 31 30 31 32 32 31 31 31 32 34 33 29
41 42 42 43 41 39 38 38 36 35 35 36 35 36 36 37 37 36 33 34 32 32 31 32 32 32 32 32 31 31 32 31 29
Wind_Direction
189 197 215 215 245 268 295 316 329 331 291 171 170 157 138 125 124 129 130 134 139 138 138 137 144 143 139 135 133 129 122 106 73
234 246 251 257 262 269 284 296 301 299 268 201 192 192 196 178 161 144 144 146 151 153 154 154 159 156 152 154 159 160 151 74 47
240 249 262 269 272 274 275 280 281 281 256 213 200 206 211 214 198 170 163 157 162 158 161 165 170 173 173 172 180 195 226 294 356
256 259 265 271 273 274 274 266 264 260 245 224 210 214 213 212 214 193 179 177 173 171 174 179 178 187 202 210 214 239 258 297 316
257 264 269 270 270 273 270 256 247 239 228 218 217 224 222 213 218 194 196 193 190 184 183 186 195 202 205 207 217 227 247 273 313
264 266 265 268 271 271 264 253 241 232 228 223 219 224 232 221 221 207 207 203 207 205 203 207 209 214 222 232 238 252 260 268 275
260 263 261 257 255 256 257 250 239 228 221 221 226 230 240 233 226 219 216 216 216 220 223 224 229 232 233 238 245 247 246 247 250
265 266 264 265 263 263 260 251 241 234 231 229 229 232 242 241 231 226 223 220 220 226 234 235 238 239 238 242 244 245 245 245 246
264 261 261 259 260 256 252 253 253 247 241 233 234 236 244 243 238 231 226 224 222 228 230 236 243 245 242 245 250 251 248 250 257
259 262 263 263 262 262 260 254 245 248 246 242 239 235 241 244 239 236 233 229 221 218 216 240 239 242 247 247 249 250 252 254 259
259 260 260 259 261 265 269 257 252 243 246 246 244 245 245 248 243 241 237 235 230 223 226 236 234 241 248 251 250 255 257 257 259
258 259 261 262 260 262 264 267 261 253 248 248 249 249 249 251 248 241 240 238 237 232 229 237 228 229 245 253 257 259 257 258 257
261 262 261 262 264 262 260 259 261 259 256 256 253 251 251 251 251 248 242 240 238 237 236 239 240 238 242 253 265 260 257 255 257
259 262 265 267 267 267 268 266 261 259 257 257 256 254 252 251 252 252 247 240 242 240 239 239 240 239 236 243 254 260 263 256 256
256 258 260 262 264 265 267 268 266 264 261 261 259 256 255 255 253 253 253 248 245 243 243 243 242 241 238 234 241 249 257 259 258
255 256 257 258 260 260 262 265 267 267 264 259 260 258 257 256 256 256 254 252 249 245 246 243 244 244 242 241 241 247 253 253 254
251 252 254 256 260 260 260 262 262 264 263 262 262 260 260 260 256 254 254 254 252 249 245 246 245 244 243 243 244 247 253 252 255
252 252 252 253 254 259 261 261 263 263 261 260 260 260 260 259 259 257 255 254 251 248 246 246 245 245 244 245 245 248 255 257 258
258 256 256 256 256 256 259 259 261 261 263 261 261 261 260 259 256 254 255 253 251 251 247 246 246 247 247 245 245 246 251 256 258
261 263 262 260 257 256 257 260 260 261 261 263 262 261 260 259 259 257 252 253 250 249 247 247 247 247 246 246 244 244 246 249 251